Hourly Data Report for May 09, 2021

MANIWAKI AIRPORT
QUEBEC
Current Station Operator: ECCC - MSC

46°16'29.000" N
75°59'31.000" W
199.70 m
7034482
71721
WMJ

Download Data

Hourly Data (May 2021)
Hourly Data Report for May 9, 2021
TIME
LST
Temp Definition
°C
Dew Point Definition
°C
Rel Hum Definition
%
Precip. Amount Definition
mm

Wind Dir Definition
10's deg

Wind Spd Definition
km/h
Visibility Definition
km
Stn Press Definition
kPa
Hmdx Definition


Wind Chill Definition


Weather Definition


00:00 4.5 4.0 97 0.4 1 4   99.04     LegendNANA
01:00 4.6 4.1 96 0.1 31 7   99.06     LegendNANA
02:00 4.5 4.0 96 0.0 30 6   99.06     LegendNANA
03:00 4.4 3.7 96 0.0 31 8   99.05     LegendNANA
04:00 3.5 3.0 97 0.0 31 4   99.05     LegendNANA
05:00 3.4 2.7 96 0.0 31 8   99.09     LegendNANA
06:00 4.2 3.0 92 0.0 28 6   99.12     LegendNANA
07:00 6.0 4.4 90 0.0 34 5   99.12     LegendNANA
08:00 6.9 3.9 81 0.0 1 3   99.09     LegendNANA
09:00 8.7 3.8 71 0.0 28 8   99.06     LegendNANA
10:00 10.6 3.5 62 0.0 28 6   99.04     LegendNANA
11:00 11.8 2.1 51 0.0 28 9   98.99     LegendNANA
12:00 12.4 -1.4 38 0.0 24 5   98.91     LegendNANA
13:00 12.7 0.1 42 0.0 1 5   98.84     LegendNANA
14:00 13.6 0.3 40 0.0 32 8   98.78     LegendNANA
15:00 12.8 0.9 44 0.0 34 15   98.77     LegendNANA
16:00 13.4 0.3 41 0.0 29 6   98.74     LegendNANA
17:00 11.4 2.4 54 0.0 18 14   98.76     LegendNANA
18:00 11.4 2.0 52 0.0 18 6   98.71     LegendNANA
19:00 7.8 3.8 76 0.0   0   98.75     LegendNANA
20:00 5.0 3.4 89 0.0 1 6   98.79     LegendNANA
21:00 4.1 3.0 93 0.0 36 1   98.80     LegendNANA
22:00 2.7 2.2 96 0.0 26 2   98.78     LegendNANA
23:00 2.9 2.4 97 0.0   0   98.77     LegendNANA

Notes on Data Quality.

Legend

  • E = Estimated
  • M = Missing
  • NA = Not Available*
  • [empty] = Indicates an unobserved value
Date modified: